period_start,C,m1,H,J0,J1,J2,J3,J4,J5,JA,JB,JC,JD,JJ,JK,JN,#
2017-06-11 00:00:44,-0.01,0.31,0.00,28.75,31.93,34.28,13.60,45.24,1019.55,2011.22,3320.18,2981.80,3422.64,599.61,586.03,39.00,0000 0000 0000 0000 000000
2017-06-11 00:05:45,0.02,0.31,0.00,28.77,31.96,34.32,13.68,45.13,1019.55,2011.03,3319.93,2981.07,3422.02,600.22,586.66,39.05,0000 0000 0000 0000 000000
2017-06-11 00:10:47,0.02,0.31,0.00,28.79,32.00,34.36,13.60,45.11,1019.55,2011.00,3319.11,2980.98,3421.71,600.12,586.25,39.10,0000 0000 0000 0000 000000
2017-06-11 00:15:48,0.03,0.31,0.00,28.83,32.03,34.39,13.65,45.14,1019.55,2011.00,3318.54,2980.39,3421.02,600.12,586.39,39.15,0000 0000 0000 0000 000000
2017-06-11 00:20:49,0.02,0.31,0.00,28.86,32.06,34.43,13.66,45.26,1019.55,2011.00,3317.91,2979.99,3420.41,599.97,586.13,39.20,0000 0000 0000 0000 000000
2017-06-11 00:25:51,0.03,0.31,0.00,28.90,32.10,34.46,13.57,45.15,1019.55,2010.98,3317.10,2979.53,3420.00,599.70,585.78,39.26,0000 0000 0000 0000 000000
2017-06-11 00:30:52,0.01,0.32,0.00,28.92,32.13,34.49,13.64,45.09,1019.55,2010.85,3316.69,2979.02,3419.56,599.85,585.83,39.31,0000 0000 0000 0000 000000
2017-06-11 00:35:54,0.16,0.32,0.00,28.96,32.16,34.53,13.59,44.95,1019.55,2010.59,3313.50,2977.39,3417.55,599.67,585.62,39.36,0000 0000 0000 0000 000000
2017-06-11 00:40:55,0.35,0.34,0.00,29.00,32.19,34.56,13.63,45.31,1019.55,2010.19,3303.84,2972.16,3411.81,600.06,585.94,39.41,0000 0000 0000 0000 000000
2017-06-11 00:45:56,0.14,0.35,0.00,29.02,32.22,34.59,13.58,45.23,1019.55,2010.01,3298.90,2969.54,3408.77,600.21,586.00,39.46,0000 0000 0000 0000 000000
2017-06-11 00:50:58,0.08,0.35,0.00,29.06,32.26,34.62,13.65,45.20,1019.55,2010.00,3296.71,2968.29,3407.42,600.14,585.93,39.51,0000 0000 0000 0000 000000
2017-06-11 00:55:59,0.03,0.35,0.00,29.09,32.28,34.65,13.64,45.27,1019.55,2009.98,3295.72,2967.70,3406.54,600.41,586.10,39.56,0000 0000 0000 0000 000000
2017-06-11 01:01:00,0.13,0.36,0.00,29.13,32.31,34.68,13.61,45.11,1019.54,2009.92,3293.44,2966.08,3404.89,600.18,585.80,39.61,0000 0000 0000 0000 000000
2017-06-11 01:06:01,0.02,0.36,0.00,29.17,32.35,34.71,13.62,45.08,1019.55,2009.53,3291.10,2964.61,3403.09,600.17,585.84,39.66,0000 0000 0000 0000 000000
2017-06-11 01:11:03,0.01,0.36,0.00,29.20,32.38,34.74,13.60,45.04,1019.55,2009.13,3290.07,2964.01,3402.24,599.92,585.39,39.71,0000 0000 0000 0000 000000
2017-06-11 01:16:04,0.04,0.36,0.00,29.24,32.41,34.78,13.67,44.88,1019.55,2009.02,3289.33,2963.41,3401.70,600.00,585.43,39.76,0000 0000 0000 0000 000000
2017-06-11 01:21:05,0.08,0.37,0.00,29.27,32.44,34.80,13.62,45.06,1019.46,2009.00,3287.84,2962.50,3400.50,600.07,585.42,39.81,0000 0000 0000 0000 000000
2017-06-11 01:26:06,0.05,0.37,0.00,29.30,32.47,34.84,13.67,44.98,1019.36,2009.00,3286.52,2961.69,3399.43,600.15,585.14,39.86,0000 0000 0000 0000 000000
2017-06-11 01:31:07,0.04,0.37,0.00,29.35,32.51,34.87,13.57,45.13,1019.27,2009.00,3285.37,2960.90,3398.60,600.13,585.14,39.91,0000 0000 0000 0000 000000
2017-06-11 01:36:08,0.08,0.38,0.00,29.40,32.54,34.90,13.65,44.96,1019.23,2008.96,3283.60,2959.82,3397.38,600.00,584.95,39.96,0000 0000 0000 0000 000000
2017-06-11 01:41:09,0.18,0.38,0.00,29.42,32.58,34.93,13.67,45.05,1019.31,2008.87,3279.59,2957.32,3394.66,600.30,585.23,40.01,0000 0000 0000 0000 000000
2017-06-11 01:46:11,0.13,0.39,0.00,29.44,32.61,34.96,13.61,44.98,1019.39,2008.48,3275.07,2954.53,3391.55,599.93,584.94,40.06,0000 0000 0000 0000 000000
2017-06-11 01:51:13,0.06,0.40,0.00,29.48,32.64,34.99,13.52,45.00,1019.46,2008.01,3272.59,2952.96,3389.76,599.94,584.97,40.11,0000 0000 0000 0000 000000
2017-06-11 01:56:14,0.08,0.40,0.00,29.52,32.68,35.03,13.54,45.01,1019.46,2008.00,3270.74,2951.78,3388.50,600.20,585.03,40.17,0000 0000 0000 0000 000000
2017-06-11 02:01:15,0.04,0.40,0.00,29.55,32.71,35.07,13.56,45.17,1019.32,2007.99,3269.56,2951.03,3387.47,599.73,584.36,40.22,0000 0000 0000 0000 000000
2017-06-11 02:06:16,0.03,0.41,0.00,29.59,32.74,35.10,13.63,45.11,1019.35,2007.95,3268.79,2950.45,3386.89,599.92,584.53,40.27,0000 0000 0000 0000 000000
2017-06-11 02:11:18,-0.01,0.41,0.00,29.62,32.77,35.13,13.57,45.07,1019.41,2007.58,3267.92,2949.99,3386.08,600.24,584.87,40.32,0000 0000 0000 0000 000000
2017-06-11 02:16:19,0.00,0.41,0.00,29.64,32.81,35.16,13.62,44.94,1019.33,2007.13,3267.06,2949.28,3385.45,599.54,584.04,40.37,0000 0000 0000 0000 000000
2017-06-11 02:21:20,0.01,0.41,0.00,29.66,32.84,35.18,13.59,45.00,1019.17,2007.02,3266.28,2948.98,3384.93,599.99,584.34,40.42,0000 0000 0000 0000 000000
2017-06-11 02:26:21,0.04,0.41,0.00,29.68,32.87,35.22,13.58,45.00,1019.16,2007.00,3265.66,2948.35,3384.17,599.90,584.28,40.47,0000 0000 0000 0000 000000
2017-06-11 02:31:22,0.02,0.41,0.00,29.73,32.91,35.25,13.60,45.13,1019.12,2006.98,3264.81,2947.95,3383.61,600.41,584.52,40.52,0000 0000 0000 0000 000000
2017-06-11 02:36:23,0.03,0.41,0.00,29.75,32.94,35.28,13.57,45.27,1019.11,2006.94,3263.96,2947.16,3382.91,600.13,584.37,40.57,0000 0000 0000 0000 000000
2017-06-11 02:41:25,0.00,0.41,0.00,29.79,32.97,35.31,13.52,45.13,1019.09,2006.70,3263.11,2946.84,3382.10,599.77,583.94,40.62,0000 0000 0000 0000 000000
2017-06-11 02:46:26,0.01,0.41,0.00,29.82,33.00,35.35,13.57,44.99,1019.07,2006.14,3262.51,2946.08,3381.48,599.95,583.96,40.67,0000 0000 0000 0000 000000
2017-06-11 02:51:27,0.02,0.41,0.00,29.85,33.03,35.38,13.57,45.17,1019.07,2006.01,3261.75,2945.76,3380.92,599.97,583.90,40.72,0000 0000 0000 0000 000000
2017-06-11 02:56:29,0.03,0.42,0.00,29.89,33.06,35.41,13.58,45.02,1019.07,2006.00,3261.00,2945.04,3380.10,599.79,583.68,40.77,0000 0000 0000 0000 000000
2017-06-11 03:01:30,0.03,0.42,0.00,29.93,33.09,35.44,13.48,45.06,1019.06,2006.00,3260.27,2944.80,3379.66,599.35,583.18,40.82,0000 0000 0000 0000 000000
2017-06-11 03:06:31,0.03,0.42,0.00,29.95,33.12,35.47,13.57,45.09,1019.06,2005.99,3259.59,2944.06,3379.02,599.93,583.68,40.87,0000 0000 0000 0000 000000
2017-06-11 03:11:33,0.01,0.42,0.00,29.99,33.16,35.50,13.59,45.07,1019.06,2005.97,3258.98,2943.98,3378.49,600.34,584.07,40.92,0000 0000 0000 0000 000000
2017-06-11 03:16:34,0.03,0.42,0.00,30.03,33.19,35.53,13.54,45.00,1019.06,2005.93,3258.17,2943.40,3378.01,599.93,583.55,40.97,0000 0000 0000 0000 000000
2017-06-11 03:21:36,-0.01,0.42,0.00,30.07,33.21,35.56,13.58,45.07,1019.06,2005.69,3257.54,2943.00,3377.34,600.21,583.81,41.02,0000 0000 0000 0000 000000
2017-06-11 03:26:37,0.00,0.42,0.00,30.11,33.25,35.59,13.53,45.24,1019.06,2005.11,3256.64,2942.33,3376.63,599.99,583.52,41.07,0000 0000 0000 0000 000000
2017-06-11 03:31:38,0.01,0.42,0.00,30.13,33.28,35.62,13.56,45.17,1019.06,2005.01,3256.01,2942.00,3376.02,599.95,583.34,41.12,0000 0000 0000 0000 000000
2017-06-11 03:36:39,0.04,0.42,0.00,30.19,33.31,35.65,13.54,45.22,1019.06,2005.01,3255.21,2941.47,3375.67,599.92,583.25,41.18,0000 0000 0000 0000 000000
2017-06-11 03:41:41,0.02,0.43,0.00,30.22,33.35,35.69,13.50,44.91,1019.06,2005.00,3254.60,2941.01,3375.01,600.10,583.28,41.23,0000 0000 0000 0000 000000
2017-06-11 03:46:42,0.03,0.43,0.00,30.27,33.38,35.72,13.58,45.02,1019.06,2004.99,3254.01,2940.74,3374.33,600.43,583.56,41.28,0000 0000 0000 0000 000000
2017-06-11 03:51:43,0.03,0.43,0.00,30.29,33.41,35.75,13.54,45.20,1019.06,2004.94,3253.25,2940.05,3373.93,600.09,583.13,41.33,0000 0000 0000 0000 000000
2017-06-11 03:56:45,-0.03,0.43,0.00,30.33,33.44,35.79,13.58,45.13,1019.06,2004.53,3252.81,2939.85,3373.13,599.76,582.85,41.38,0000 0000 0000 0000 000000
2017-06-11 04:01:47,0.01,0.43,0.00,30.39,33.48,35.82,13.57,45.01,1019.06,2004.12,3252.07,2939.11,3372.75,599.96,582.76,41.43,0000 0000 0000 0000 000000
2017-06-11 04:06:48,0.02,0.43,0.00,30.46,33.52,35.86,13.51,45.12,1019.06,2004.01,3251.30,2938.87,3372.03,600.09,582.81,41.48,0000 0000 0000 0000 000000
2017-06-11 04:11:49,0.03,0.43,0.00,30.52,33.56,35.89,13.51,45.02,1019.06,2004.00,3250.77,2938.15,3371.39,600.02,582.68,41.53,0000 0000 0000 0000 000000
2017-06-11 04:16:51,0.01,0.43,0.00,30.57,33.60,35.93,13.49,45.10,1019.06,2003.99,3250.03,2937.88,3370.96,600.26,582.79,41.58,0000 0000 0000 0000 000000
2017-06-11 04:21:52,0.04,0.43,0.00,30.62,33.64,35.96,13.51,44.98,1019.06,2003.96,3249.33,2937.14,3370.23,599.52,582.10,41.63,0000 0000 0000 0000 000000
2017-06-11 04:26:53,-0.02,0.44,0.00,30.64,33.67,36.01,13.57,44.86,1019.04,2003.74,3248.98,2937.00,3369.89,600.09,582.42,41.68,0000 0000 0000 0000 000000
2017-06-11 04:31:54,0.00,0.43,0.00,30.68,33.71,36.05,13.50,45.01,1018.99,2003.16,3248.22,2936.42,3369.13,599.72,582.04,41.73,0000 0000 0000 0000 000000
2017-06-11 04:36:55,0.02,0.43,0.00,30.72,33.75,36.09,13.56,44.88,1018.90,2003.01,3247.49,2935.99,3368.61,600.13,582.40,41.78,0000 0000 0000 0000 000000
2017-06-11 04:41:57,0.04,0.44,0.00,30.75,33.79,36.13,13.47,44.83,1018.78,2002.99,3246.68,2935.29,3367.96,600.38,582.41,41.83,0000 0000 0000 0000 000000
2017-06-11 04:46:58,0.02,0.44,0.00,30.79,33.83,36.17,13.49,45.17,1018.87,2002.96,3245.92,2934.89,3367.15,600.12,582.07,41.88,0000 0000 0000 0000 000000
2017-06-11 04:51:59,0.02,0.44,0.00,30.83,33.87,36.21,13.47,44.88,1018.67,2002.70,3245.08,2934.10,3366.47,599.83,581.66,41.93,0000 0000 0000 0000 000000
2017-06-11 04:57:01,-0.03,0.44,0.00,30.88,33.91,36.25,13.56,44.92,1018.61,2002.17,3244.42,2933.85,3365.94,600.08,581.83,41.98,0000 0000 0000 0000 000000
2017-06-11 05:02:02,0.03,0.44,0.00,30.92,33.95,36.29,13.47,44.87,1018.61,2002.02,3243.90,2933.13,3365.20,599.95,581.58,42.03,0000 0000 0000 0000 000000
2017-06-11 05:07:03,0.03,0.44,0.00,30.98,33.99,36.33,13.53,44.93,1018.64,2002.00,3243.06,2932.87,3364.67,600.52,582.08,42.08,0000 0000 0000 0000 000000
2017-06-11 05:12:04,0.04,0.44,0.00,31.04,34.04,36.37,13.50,44.83,1018.60,2002.00,3242.26,2932.09,3364.01,599.93,581.34,42.14,0000 0000 0000 0000 000000
2017-06-11 05:17:06,0.01,0.44,0.00,31.09,34.08,36.41,13.43,44.88,1018.60,2001.87,3241.74,2931.79,3363.30,599.88,581.28,42.19,0000 0000 0000 0000 000000
2017-06-11 05:22:07,-0.00,0.45,0.00,31.14,34.13,36.44,13.51,45.20,1018.59,2001.53,3240.95,2931.06,3362.89,600.17,581.41,42.24,0000 0000 0000 0000 000000
2017-06-11 05:27:08,0.01,0.44,0.00,31.20,34.17,36.49,13.53,45.30,1018.58,2001.17,3240.16,2930.83,3362.09,600.22,581.27,42.29,0000 0000 0000 0000 000000
2017-06-11 05:32:09,0.02,0.45,0.00,31.25,34.22,36.54,13.55,45.14,1018.58,2001.02,3239.76,2930.09,3361.56,600.63,581.57,42.34,0000 0000 0000 0000 000000
2017-06-11 05:37:10,0.03,0.45,0.00,31.27,34.27,36.58,13.49,45.01,1018.57,2001.00,3239.00,2929.59,3360.97,599.92,580.87,42.39,0000 0000 0000 0000 000000
2017-06-11 05:42:11,0.02,0.45,0.00,31.31,34.31,36.63,13.44,44.93,1018.57,2000.90,3238.20,2929.02,3360.19,599.91,580.79,42.44,0000 0000 0000 0000 000000
2017-06-11 05:47:12,-0.04,0.45,0.00,31.35,34.36,36.68,13.49,44.78,1018.57,2000.28,3237.88,2928.68,3359.76,600.10,580.80,42.49,0000 0000 0000 0000 000000
2017-06-11 05:52:14,0.02,0.45,0.00,31.43,34.41,36.72,13.47,44.70,1018.57,2000.04,3237.09,2928.05,3359.07,599.73,580.40,42.54,0000 0000 0000 0000 000000
2017-06-11 05:57:15,0.03,0.45,0.00,31.50,34.45,36.77,13.54,44.77,1018.57,2000.00,3236.65,2927.85,3358.61,600.13,580.71,42.59,0000 0000 0000 0000 000000
2017-06-11 06:02:16,0.02,0.45,0.00,31.54,34.50,36.82,13.49,44.83,1018.57,1999.99,3235.99,2927.11,3357.95,600.23,580.63,42.64,0000 0000 0000 0000 000000
2017-06-11 06:07:17,-0.01,0.45,0.00,31.61,34.54,36.86,13.40,45.08,1018.57,1999.52,3235.23,2926.62,3357.09,599.99,580.32,42.69,0000 0000 0000 0000 000000
2017-06-11 06:12:19,0.00,0.45,0.00,31.67,34.59,36.90,13.50,45.19,1018.57,1999.05,3234.44,2926.00,3356.22,600.01,580.19,42.74,0000 0000 0000 0000 000000
2017-06-11 06:17:20,0.04,0.45,0.00,31.72,34.63,36.95,13.40,45.12,1018.56,1999.00,3233.70,2925.38,3355.62,599.75,579.85,42.79,0000 0000 0000 0000 000000
2017-06-11 06:22:21,0.01,0.45,0.00,31.76,34.68,36.99,13.45,44.91,1018.57,1998.95,3232.95,2924.96,3354.96,600.05,580.15,42.84,0000 0000 0000 0000 000000
2017-06-11 06:27:23,-0.01,0.45,0.00,31.80,34.73,37.05,13.49,45.02,1018.57,1998.45,3232.07,2924.14,3354.15,600.39,580.30,42.89,0000 0000 0000 0000 000000
2017-06-11 06:32:24,0.02,0.45,0.00,31.84,34.77,37.09,13.49,44.81,1018.48,1998.03,3231.21,2923.84,3353.45,600.28,580.05,42.94,0000 0000 0000 0000 000000
2017-06-11 06:37:25,0.03,0.46,0.00,31.89,34.82,37.14,13.44,44.80,1018.15,1998.00,3230.62,2923.11,3352.92,600.05,579.65,42.99,0000 0000 0000 0000 000000
2017-06-11 06:42:27,0.02,0.46,0.00,31.94,34.86,37.19,13.49,44.72,1018.09,1997.97,3229.80,2922.74,3352.11,599.91,579.29,43.04,0000 0000 0000 0000 000000
2017-06-11 06:47:29,0.01,0.46,0.00,31.99,34.90,37.22,13.44,44.64,1018.11,1997.72,3229.00,2922.04,3351.36,599.88,579.24,43.09,0000 0000 0000 0000 000000
2017-06-11 06:52:30,-0.01,0.46,0.00,32.08,34.95,37.27,13.33,44.90,1018.13,1997.13,3228.39,2921.64,3350.87,599.83,579.01,43.15,0000 0000 0000 0000 000000
2017-06-11 06:57:31,0.02,0.46,0.00,32.13,34.99,37.32,13.43,44.98,1018.11,1997.01,3227.61,2921.01,3350.08,600.20,579.20,43.20,0000 0000 0000 0000 000000
2017-06-11 07:02:32,0.03,0.46,0.00,32.17,35.03,37.36,13.42,44.96,1018.09,1997.00,3227.01,2920.66,3349.59,599.78,578.64,43.25,0000 0000 0000 0000 000000
2017-06-11 07:07:33,0.02,0.46,0.00,32.22,35.07,37.41,13.47,44.78,1018.08,1996.97,3226.29,2920.02,3349.01,600.02,578.91,43.30,0000 0000 0000 0000 000000
2017-06-11 07:12:35,0.00,0.46,0.00,32.27,35.12,37.45,13.34,44.75,1018.08,1996.67,3225.68,2919.60,3348.30,599.36,578.17,43.35,0000 0000 0000 0000 000000
2017-06-11 07:17:36,-0.01,0.46,0.00,32.34,35.16,37.50,13.42,44.67,1018.08,1996.15,3225.01,2919.03,3347.87,599.76,578.51,43.40,0000 0000 0000 0000 000000
2017-06-11 07:22:37,0.03,0.46,0.00,32.41,35.21,37.55,13.38,44.64,1018.09,1996.01,3224.21,2918.60,3347.09,600.03,578.60,43.45,0000 0000 0000 0000 000000
2017-06-11 07:27:38,0.01,0.46,0.00,32.46,35.25,37.59,13.42,44.76,1018.09,1996.00,3223.95,2918.03,3346.82,600.26,578.67,43.50,0000 0000 0000 0000 000000
2017-06-11 07:32:40,0.03,0.47,0.00,32.52,35.30,37.64,13.44,44.92,1018.10,1995.97,3223.12,2917.62,3346.05,600.05,578.35,43.55,0000 0000 0000 0000 000000
2017-06-11 07:37:42,0.00,0.47,0.00,32.59,35.34,37.69,13.41,44.69,1018.09,1995.71,3222.43,2917.03,3345.43,600.14,578.32,43.60,0000 0000 0000 0000 000000
2017-06-11 07:42:43,-0.01,0.47,0.00,32.65,35.39,37.74,13.43,44.77,1018.09,1995.18,3221.77,2916.45,3344.75,599.99,578.07,43.65,0000 0000 0000 0000 000000
2017-06-11 07:47:44,0.01,0.47,0.00,32.72,35.44,37.79,13.40,44.69,1018.11,1995.00,3221.03,2915.99,3344.03,600.00,577.94,43.70,0000 0000 0000 0000 000000
2017-06-11 07:52:45,0.04,0.47,0.00,32.78,35.49,37.84,13.33,44.69,1018.11,1995.00,3220.56,2915.44,3343.49,599.78,577.61,43.75,0000 0000 0000 0000 000000
2017-06-11 07:57:46,-0.00,0.47,0.00,32.83,35.54,37.89,13.35,44.62,1018.09,1994.85,3219.88,2914.98,3342.88,600.03,577.84,43.80,0000 0000 0000 0000 000000
2017-06-11 08:02:47,-0.00,0.47,0.00,32.88,35.60,37.94,13.42,44.60,1018.08,1994.27,3219.05,2914.23,3342.06,600.14,577.80,43.85,0000 0000 0000 0000 000000
2017-06-11 08:07:49,0.02,0.47,0.00,32.92,35.65,37.99,13.29,44.52,1018.09,1994.03,3218.19,2913.85,3341.28,599.63,577.19,43.90,0000 0000 0000 0000 000000
2017-06-11 08:12:50,0.04,0.47,0.00,32.98,35.70,38.04,13.43,44.51,1018.08,1994.00,3217.38,2913.06,3340.61,599.88,577.40,43.95,0000 0000 0000 0000 000000
2017-06-11 08:17:51,0.04,0.47,0.00,33.05,35.75,38.09,13.33,44.51,1018.08,1993.91,3216.44,2912.33,3339.79,600.11,577.42,44.00,0000 0000 0000 0000 000000
2017-06-11 08:22:52,-0.01,0.47,0.00,33.10,35.81,38.14,13.49,44.61,1018.08,1993.54,3215.56,2911.90,3338.98,600.23,577.41,44.05,0000 0000 0000 0000 000000
2017-06-11 08:27:54,0.01,0.47,0.00,33.15,35.86,38.20,13.42,44.76,1018.08,1993.04,3214.68,2911.06,3338.10,599.95,577.05,44.11,0000 0000 0000 0000 000000
2017-06-11 08:32:55,0.05,0.48,0.00,33.20,35.91,38.26,13.39,44.66,1018.08,1993.00,3213.78,2910.43,3337.32,599.70,576.64,44.16,0000 0000 0000 0000 000000
2017-06-11 08:37:56,0.01,0.48,0.00,33.23,35.96,38.31,13.42,44.58,1018.08,1992.84,3212.93,2909.83,3336.45,600.15,577.08,44.21,0000 0000 0000 0000 000000
2017-06-11 08:42:57,-0.01,0.48,0.00,33.27,36.01,38.35,13.43,44.72,1018.07,1992.19,3211.98,2909.03,3335.68,600.19,576.97,44.26,0000 0000 0000 0000 000000
2017-06-11 08:47:58,0.04,0.48,0.00,33.32,36.06,38.40,13.41,44.73,1018.08,1992.00,3211.01,2908.31,3334.85,599.97,576.61,44.31,0000 0000 0000 0000 000000
2017-06-11 08:52:59,0.04,0.48,0.00,33.37,36.12,38.45,13.33,44.60,1018.08,1992.00,3210.05,2907.81,3333.97,599.69,576.40,44.36,0000 0000 0000 0000 000000
2017-06-11 08:58:01,0.03,0.48,0.00,33.41,36.16,38.50,13.40,44.52,1018.08,1991.90,3209.11,2907.04,3333.09,600.22,576.82,44.41,0000 0000 0000 0000 000000
2017-06-11 09:03:02,-0.00,0.48,0.00,33.47,36.21,38.54,13.39,44.51,1018.08,1991.49,3208.38,2906.53,3332.46,600.14,576.64,44.46,0000 0000 0000 0000 000000
2017-06-11 09:08:03,0.01,0.48,0.00,33.52,36.26,38.59,13.37,44.52,1018.07,1991.02,3207.44,2905.89,3331.57,600.01,576.38,44.51,0000 0000 0000 0000 000000
2017-06-11 09:13:04,0.04,0.49,0.00,33.59,36.31,38.65,13.42,44.77,1018.08,1990.99,3206.52,2905.09,3330.70,600.15,576.43,44.56,0000 0000 0000 0000 000000
2017-06-11 09:18:05,0.02,0.49,0.00,33.64,36.36,38.70,13.33,44.43,1018.05,1990.80,3205.64,2904.55,3329.88,599.91,576.08,44.61,0000 0000 0000 0000 000000
2017-06-11 09:23:06,-0.03,0.49,0.00,33.67,36.41,38.75,13.36,44.63,1018.02,1990.16,3204.82,2903.96,3329.06,599.91,576.08,44.66,0000 0000 0000 0000 000000
2017-06-11 09:28:07,0.05,0.49,0.00,33.73,36.46,38.78,13.35,44.64,1017.94,1990.01,3203.88,2903.18,3328.27,599.78,575.76,44.71,0000 0000 0000 0000 000000
2017-06-11 09:33:08,0.04,0.49,0.00,33.78,36.51,38.84,13.39,44.56,1017.84,1989.97,3202.88,2902.57,3327.38,600.03,575.83,44.76,0000 0000 0000 0000 000000
2017-06-11 09:38:10,-0.00,0.49,0.00,33.84,36.56,38.89,13.33,44.55,1017.77,1989.69,3201.95,2901.93,3326.72,599.89,575.55,44.81,0000 0000 0000 0000 000000
2017-06-11 09:43:11,0.01,0.49,0.00,33.88,36.61,38.95,13.36,44.57,1017.68,1989.17,3200.97,2901.11,3325.87,600.03,575.54,44.86,0000 0000 0000 0000 000000
2017-06-11 09:48:12,0.04,0.49,0.00,33.93,36.66,38.99,13.40,44.58,1017.62,1989.00,3199.98,2900.46,3325.01,600.22,575.64,44.91,0000 0000 0000 0000 000000
2017-06-11 09:53:14,0.03,0.50,0.00,33.99,36.71,39.04,13.32,44.52,1017.63,1989.00,3199.09,2899.97,3324.25,600.08,575.37,44.96,0000 0000 0000 0000 000000
2017-06-11 09:58:15,0.03,0.50,0.00,34.05,36.75,39.09,13.40,44.71,1017.67,1988.85,3198.25,2899.18,3323.43,600.47,575.67,45.02,0000 0000 0000 0000 000000
2017-06-11 10:03:16,-0.01,0.50,0.00,34.10,36.80,39.14,13.33,44.87,1017.62,1988.23,3197.19,2898.43,3322.55,599.98,575.04,45.07,0000 0000 0000 0000 000000
2017-06-11 10:08:17,0.03,0.50,0.00,34.17,36.85,39.19,13.34,44.67,1017.61,1988.02,3196.41,2897.82,3321.65,600.02,574.93,45.12,0000 0000 0000 0000 000000
2017-06-11 10:13:18,0.04,0.50,0.00,34.23,36.90,39.25,13.29,44.43,1017.61,1988.00,3195.54,2897.06,3320.85,600.07,574.95,45.17,0000 0000 0000 0000 000000
2017-06-11 10:18:20,0.02,0.50,0.00,34.29,36.95,39.31,13.32,44.34,1017.60,1987.81,3194.62,2896.41,3319.97,599.93,574.69,45.22,0000 0000 0000 0000 000000
2017-06-11 10:23:21,-0.02,0.50,0.00,34.36,37.00,39.39,13.36,44.43,1017.61,1987.16,3193.61,2895.80,3319.05,600.21,574.79,45.27,0000 0000 0000 0000 000000
2017-06-11 10:28:22,0.04,0.50,0.00,34.43,37.06,39.47,13.34,44.32,1017.59,1987.00,3192.68,2895.03,3318.15,600.14,574.58,45.32,0000 0000 0000 0000 000000
2017-06-11 10:33:24,0.05,0.51,0.00,34.51,37.11,39.55,13.32,44.39,1017.59,1986.99,3191.77,2894.27,3317.27,600.04,574.32,45.37,0000 0000 0000 0000 000000
2017-06-11 10:38:25,0.03,0.51,0.00,34.59,37.17,39.65,13.31,44.39,1017.60,1986.75,3190.72,2893.57,3316.35,600.02,574.18,45.42,0000 0000 0000 0000 000000
2017-06-11 10:43:26,-0.01,0.51,0.00,34.68,37.23,39.72,13.33,44.36,1017.60,1986.20,3189.79,2892.91,3315.54,600.03,574.07,45.47,0000 0000 0000 0000 000000
2017-06-11 10:48:28,0.04,0.51,0.00,34.75,37.29,39.81,13.33,44.31,1017.60,1986.01,3188.78,2892.07,3314.56,600.37,574.20,45.52,0000 0000 0000 0000 000000
2017-06-11 10:53:29,0.05,0.51,0.00,34.84,37.35,39.91,13.29,44.29,1017.62,1985.95,3187.64,2891.27,3313.57,600.10,573.73,45.57,0000 0000 0000 0000 000000
2017-06-11 10:58:31,-0.01,0.51,0.00,34.92,37.41,40.00,13.35,44.33,1017.61,1985.37,3186.56,2890.38,3312.56,600.11,573.60,45.62,0000 0000 0000 0000 000000
2017-06-11 11:03:32,0.03,0.51,0.00,34.97,37.47,40.08,13.32,44.57,1017.63,1985.01,3185.52,2889.64,3311.68,600.23,573.74,45.67,0000 0000 0000 0000 000000
2017-06-11 11:08:33,0.05,0.51,0.00,35.03,37.53,40.15,13.28,44.73,1017.61,1984.98,3184.35,2888.83,3310.52,599.95,573.30,45.72,0000 0000 0000 0000 000000
2017-06-11 11:13:34,-0.00,0.52,0.00,35.07,37.59,40.24,13.24,44.67,1017.62,1984.63,3183.42,2888.03,3309.70,599.82,573.12,45.77,0000 0000 0000 0000 000000
2017-06-11 11:18:35,0.01,0.52,0.00,35.11,37.65,40.30,13.24,44.61,1017.61,1984.08,3182.49,2887.39,3308.84,599.80,573.15,45.82,0000 0000 0000 0000 000000
2017-06-11 11:23:36,0.04,0.52,0.00,35.15,37.71,40.34,13.26,44.43,1017.61,1984.00,3181.47,2886.72,3307.92,599.79,573.03,45.87,0000 0000 0000 0000 000000
2017-06-11 11:28:37,0.03,0.52,0.00,35.17,37.76,40.36,13.26,44.30,1017.61,1983.91,3180.43,2886.01,3307.03,599.77,572.83,45.92,0000 0000 0000 0000 000000
2017-06-11 11:33:38,-0.01,0.52,0.00,35.17,37.81,40.42,13.22,44.20,1017.60,1983.39,3179.68,2885.22,3306.13,599.74,572.81,45.97,0000 0000 0000 0000 000000
2017-06-11 11:38:40,0.03,0.52,0.00,35.17,37.86,40.43,13.29,44.19,1017.59,1983.01,3178.68,2884.68,3305.23,599.64,572.71,46.03,0000 0000 0000 0000 000000
2017-06-11 11:43:41,0.04,0.52,0.00,35.15,37.90,40.43,13.32,44.20,1017.59,1983.00,3177.66,2884.01,3304.39,599.72,572.84,46.08,0000 0000 0000 0000 000000
2017-06-11 11:48:42,0.03,0.53,0.00,35.12,37.95,40.46,13.31,44.35,1017.59,1982.86,3176.76,2883.22,3303.58,600.28,573.47,46.13,0000 0000 0000 0000 000000
2017-06-11 11:53:44,-0.01,0.52,0.00,35.08,37.99,40.46,13.39,44.35,1017.59,1982.36,3175.87,2882.80,3302.87,600.09,573.31,46.18,0000 0000 0000 0000 000000
2017-06-11 11:58:45,0.02,0.53,0.00,35.04,38.03,40.50,13.31,44.30,1017.60,1982.04,3175.00,2882.06,3302.07,599.82,573.07,46.23,0000 0000 0000 0000 000000
2017-06-11 12:03:47,0.04,0.53,0.00,34.99,38.07,40.50,13.29,44.33,1017.59,1982.00,3174.14,2881.65,3301.35,599.90,573.34,46.28,0000 0000 0000 0000 000000
2017-06-11 12:08:48,0.03,0.53,0.00,34.95,38.10,40.52,13.38,44.24,1017.59,1982.00,3173.35,2881.03,3300.74,600.32,573.77,46.33,0000 0000 0000 0000 000000
2017-06-11 12:13:49,0.04,0.53,0.00,34.92,38.13,40.54,13.35,44.18,1017.59,1981.97,3172.51,2880.45,3300.01,600.26,573.77,46.38,0000 0000 0000 0000 000000
2017-06-11 12:18:50,-0.00,0.53,0.00,34.89,38.15,40.55,13.34,44.23,1017.59,1981.69,3171.63,2879.98,3299.17,599.90,573.47,46.43,0000 0000 0000 0000 000000
2017-06-11 12:23:51,0.01,0.53,0.00,34.87,38.18,40.54,13.28,44.86,1017.57,1981.21,3170.57,2879.19,3298.37,600.11,573.74,46.48,0000 0000 0000 0000 000000
2017-06-11 12:28:53,0.02,0.53,0.00,34.85,38.20,40.54,13.33,44.61,1017.49,1981.03,3169.68,2878.90,3297.70,599.78,573.34,46.53,0000 0000 0000 0000 000000
2017-06-11 12:33:54,0.04,0.54,0.00,34.84,38.22,40.55,13.29,44.46,1017.36,1981.00,3168.88,2878.17,3296.99,599.81,573.37,46.58,0000 0000 0000 0000 000000
2017-06-11 12:38:55,0.02,0.54,0.00,34.82,38.24,40.55,13.27,44.39,1017.27,1981.00,3168.02,2877.95,3296.26,600.04,573.55,46.63,0000 0000 0000 0000 000000
2017-06-11 12:43:57,0.04,0.54,0.00,34.83,38.25,40.56,13.38,44.31,1017.17,1981.00,3167.18,2877.26,3295.95,600.14,573.53,46.68,0000 0000 0000 0000 000000
2017-06-11 12:48:58,0.02,0.54,0.00,34.83,38.27,40.57,13.22,44.19,1017.16,1980.99,3166.53,2876.99,3295.17,599.34,572.89,46.73,0000 0000 0000 0000 000000
2017-06-11 12:53:59,0.03,0.54,0.00,34.80,38.28,40.57,13.31,44.19,1017.12,1980.93,3165.76,2876.39,3294.59,599.95,573.42,46.78,0000 0000 0000 0000 000000